| time (UTC) | temp C | wind direction | speed KPH | gust KPH | rain 1hr cm | rain 24hr cm | rain mn cm | humidity % | barometer mb |
| 20260506073041 | 10 | 12 | 17.7 | 27.4 | 0.00 | 0.46 | 0.05 | 93 | 1009.8 |
| 20260506071542 | 11 | 22 | 11.3 | 24.1 | 0.00 | 0.46 | 0.05 | 93 | 1009.6 |
| 20260506061548 | 11 | 29 | 17.7 | 25.7 | 0.00 | 0.46 | 0.05 | 95 | 1009.0 |
| 20260506044544 | 11 | 32 | 14.5 | 24.1 | 0.03 | 0.46 | 0.05 | 96 | 1008.5 |
| 20260506043040 | 11 | 16 | 16.1 | 24.1 | 0.05 | 0.46 | 0.05 | 95 | 1008.5 |
| 20260506041552 | 11 | 23 | 8.0 | 17.7 | 0.05 | 0.46 | 0.05 | 95 | 1008.5 |
| 20260506040039 | 11 | 17 | 16.1 | 22.5 | 0.00 | 0.43 | 0.00 | 95 | 1008.4 |
| 20260506034547 | 11 | 22 | 6.4 | 14.5 | 0.00 | 0.43 | 0.00 | 94 | 1008.2 |
| 20260506033038 | 12 | 30 | 4.8 | 11.3 | 0.00 | 0.41 | 0.00 | 93 | 1008.2 |
| 20260506031543 | 12 | 49 | 1.6 | 6.4 | 0.00 | 0.41 | 0.00 | 92 | 1008.3 |
| 20260506030041 | 12 | 44 | 3.2 | 8.0 | 0.00 | 0.41 | 0.00 | 91 | 1008.3 |
| 20260506024540 | 12 | 39 | 0.0 | 4.8 | 0.00 | 0.41 | 0.00 | 89 | 1008.4 |
| 20260506023037 | 12 | 0 | 0.0 | 0.0 | 0.00 | 0.41 | 0.00 | 88 | 1008.4 |
| 20260506021536 | 12 | 0 | 0.0 | 1.6 | 0.00 | 0.41 | 0.00 | 87 | 1008.4 |
| 20260506020047 | 12 | 285 | 1.6 | 4.8 | 0.00 | 0.41 | 0.00 | 88 | 1008.4 |
| 20260506014542 | 12 | 285 | 1.6 | 4.8 | 0.00 | 0.41 | 0.00 | 88 | 1008.6 |
| 20260506013051 | 12 | 297 | 0.0 | 4.8 | 0.00 | 0.41 | 0.00 | 89 | 1008.7 |
| 20260506011543 | 12 | 285 | 1.6 | 9.7 | 0.00 | 0.41 | 0.00 | 90 | 1008.9 |
| 20260506010037 | 12 | 269 | 1.6 | 6.4 | 0.00 | 0.41 | 0.00 | 91 | 1009.1 |
| 20260506004536 | 12 | 259 | 0.0 | 3.2 | 0.00 | 0.41 | 0.00 | 91 | 1009.2 |
| 20260506003042 | 12 | 268 | 1.6 | 4.8 | 0.00 | 0.41 | 0.00 | 91 | 1009.2 |
| 20260506001542 | 12 | 277 | 0.0 | 4.8 | 0.00 | 0.41 | 0.00 | 91 | 1009.3 |
| 20260506000038 | 12 | 274 | 1.6 | 4.8 | 0.00 | 0.41 | 0.00 | 91 | 1009.5 |
| 20260505234538 | 12 | 250 | 0.0 | 6.4 | 0.00 | 0.41 | 0.00 | 91 | 1009.5 |
| 20260505233036 | 12 | 0 | 3.2 | 8.0 | 0.00 | 0.41 | 0.00 | 91 | 1009.4 |
| 20260505231537 | 12 | 276 | 0.0 | 3.2 | 0.00 | 0.41 | 0.00 | 90 | 1009.5 |
| 20260505230054 | 12 | 0 | 1.6 | 4.8 | 0.00 | 0.41 | 0.00 | 90 | 1009.6 |
| 20260505224539 | 13 | 278 | 0.0 | 8.0 | 0.00 | 0.43 | 0.00 | 89 | 1009.7 |
| 20260505223043 | 13 | 261 | 0.0 | 6.4 | 0.00 | 0.43 | 0.00 | 88 | 1009.7 |
| 20260505221545 | 13 | 303 | 1.6 | 14.5 | 0.00 | 0.43 | 0.00 | 87 | 1009.8 |
| 20260505220050 | 13 | 271 | 0.0 | 8.0 | 0.00 | 0.43 | 0.00 | 87 | 1010.0 |
| 20260505214537 | 13 | 281 | 1.6 | 6.4 | 0.00 | 0.46 | 0.43 | 87 | 1010.1 |
| 20260505213041 | 13 | 287 | 4.8 | 12.9 | 0.00 | 0.46 | 0.43 | 85 | 1010.3 |
| 20260505211549 | 13 | 289 | 1.6 | 6.4 | 0.00 | 0.46 | 0.43 | 86 | 1010.4 |
| 20260505210040 | 13 | 0 | 0.0 | 4.8 | 0.00 | 0.46 | 0.43 | 85 | 1010.6 |
| 20260505204539 | 13 | 0 | 0.0 | 4.8 | 0.00 | 0.56 | 0.43 | 86 | 1010.7 |
| 20260505203042 | 13 | 236 | 0.0 | 6.4 | 0.00 | 0.56 | 0.43 | 85 | 1010.8 |
| 20260505201543 | 13 | 253 | 0.0 | 6.4 | 0.00 | 0.56 | 0.43 | 84 | 1010.8 |
| 20260505200042 | 13 | 163 | 1.6 | 11.3 | 0.00 | 0.56 | 0.43 | 84 | 1010.6 |
| 20260505194542 | 13 | 311 | 0.0 | 9.7 | 0.00 | 0.56 | 0.43 | 83 | 1010.4 |
| 20260505193047 | 13 | 269 | 4.8 | 12.9 | 0.00 | 0.56 | 0.43 | 83 | 1010.3 |
| 20260505191541 | 13 | 257 | 4.8 | 12.9 | 0.00 | 0.56 | 0.43 | 81 | 1010.3 |
| 20260505190043 | 14 | 272 | 1.6 | 17.7 | 0.00 | 0.56 | 0.43 | 81 | 1010.3 |
| 20260505184540 | 15 | 308 | 4.8 | 20.9 | 0.00 | 0.56 | 0.43 | 80 | 1010.3 |
| 20260505183040 | 15 | 264 | 8.0 | 19.3 | 0.00 | 0.56 | 0.43 | 80 | 1010.2 |
| 20260505181543 | 15 | 286 | 8.0 | 19.3 | 0.00 | 0.56 | 0.43 | 81 | 1010.3 |
| 20260505180035 | 15 | 262 | 8.0 | 16.1 | 0.00 | 0.56 | 0.43 | 79 | 1010.1 |
| 20260505174536 | 15 | 304 | 8.0 | 17.7 | 0.00 | 0.56 | 0.43 | 79 | 1010.3 |
| 20260505173042 | 15 | 284 | 6.4 | 19.3 | 0.00 | 0.56 | 0.43 | 80 | 1010.2 |
| 20260505171539 | 15 | 287 | 9.7 | 19.3 | 0.00 | 0.56 | 0.43 | 79 | 1010.3 |
| 20260505170038 | 16 | 306 | 11.3 | 17.7 | 0.00 | 0.56 | 0.43 | 78 | 1010.4 |
| 20260505164537 | 16 | 304 | 11.3 | 17.7 | 0.00 | 0.56 | 0.43 | 76 | 1010.4 |
| 20260505163043 | 16 | 290 | 11.3 | 19.3 | 0.00 | 0.56 | 0.43 | 77 | 1010.3 |
| 20260505161545 | 16 | 278 | 9.7 | 27.4 | 0.00 | 0.56 | 0.43 | 79 | 1010.4 |
| 20260505153037 | 16 | 303 | 6.4 | 17.7 | 0.00 | 0.56 | 0.43 | 78 | 1010.3 |
| 20260505151538 | 15 | 292 | 6.4 | 20.9 | 0.00 | 0.56 | 0.43 | 80 | 1010.4 |
| 20260505124548 | 14 | 281 | 4.8 | 11.3 | 0.03 | 0.51 | 0.36 | 87 | 1010.8 |
| 20260505123038 | 15 | 0 | 0.0 | 11.3 | 0.00 | 0.48 | 0.36 | 87 | 1010.7 |
| 20260505121541 | 15 | 0 | 3.2 | 16.1 | 0.08 | 0.46 | 0.33 | 87 | 1010.7 |
| 20260505120041 | 14 | 306 | 4.8 | 12.9 | 0.25 | 0.46 | 0.33 | 87 | 1010.7 |
| 20260505114539 | 13 | 293 | 4.8 | 14.5 | 0.25 | 0.46 | 0.33 | 90 | 1010.7 |
| 20260505113039 | 13 | 297 | 3.2 | 9.7 | 0.25 | 0.46 | 0.33 | 90 | 1011.0 |
| 20260505111537 | 13 | 304 | 4.8 | 19.3 | 0.23 | 0.38 | 0.25 | 88 | 1011.1 |
| 20260505101545 | 14 | 302 | 8.0 | 20.9 | 0.00 | 0.18 | 0.00 | 82 | 1010.8 |
| 20260505100037 | 15 | 309 | 11.3 | 24.1 | 0.00 | 0.18 | 0.00 | 80 | 1010.8 |
| 20260505094536 | 15 | 323 | 8.0 | 20.9 | 0.00 | 0.20 | 0.00 | 86 | 1010.8 |
| 20260505093036 | 15 | 297 | 11.3 | 17.7 | 0.00 | 0.20 | 0.00 | 84 | 1010.8 |
| 20260505091541 | 15 | 308 | 8.0 | 17.7 | 0.00 | 0.20 | 0.00 | 83 | 1010.7 |
| 20260505090045 | 15 | 279 | 9.7 | 17.7 | 0.00 | 0.20 | 0.00 | 84 | 1010.7 |
| 20260505084550 | 15 | 314 | 9.7 | 19.3 | 0.00 | 0.38 | 0.00 | 85 | 1010.7 |
| 20260505083046 | 15 | 314 | 11.3 | 17.7 | 0.00 | 0.38 | 0.00 | 85 | 1010.8 |
| 20260505081552 | 15 | 321 | 11.3 | 17.7 | 0.00 | 0.38 | 0.00 | 84 | 1010.7 |
| 20260505080047 | 15 | 310 | 8.0 | 20.9 | 0.00 | 0.38 | 0.00 | 81 | 1010.7 |
| 20260505074541 | 15 | 300 | 12.9 | 20.9 | 0.00 | 0.58 | 0.00 | 81 | 1010.6 |